Theta_e
278 279 279 278 278 277 277 276 277 277 277 277 277 277 275 274 271 270 270 271 272 274 275 274 275 278 278 278 280 279 280 282 283 282 282 281 280 283 287 289 290 291 292 292 293 296 297 296 296 297 298 298 299 299 299 299 299 299 299 298 297 298 296 295 294 294 294 294 294 294 295 295 295 295
279 279 278 278 277 277 277 277 277 276 276 275 275 275 275 275 273 272 270 270 273 273 274 274 275 277 277 279 279 280 280 283 283 282 281 279 279 284 285 286 287 288 289 289 291 294 295 297 297 297 298 297 296 298 297 297 299 299 298 298 296 294 294 293 293 293 293 293 293 293 294 294 294 295
279 278 277 277 277 277 277 277 276 276 276 276 275 275 275 275 275 273 272 269 273 275 273 275 276 276 277 278 278 280 281 282 283 281 279 279 282 283 281 284 285 286 287 289 289 290 292 295 296 296 296 297 297 297 297 298 297 296 296 294 293 292 292 292 292 292 292 292 292 293 293 293 294 294
278 277 276 277 277 277 276 275 275 275 275 276 275 275 275 275 275 275 273 271 271 275 275 275 276 277 277 278 278 279 280 282 283 279 279 279 281 279 278 282 283 284 286 287 288 289 290 292 294 294 294 294 294 295 295 295 294 294 293 292 291 291 291 291 292 292 292 292 292 292 292 292 293 293
277 277 276 276 277 276 274 274 275 275 275 276 276 276 276 275 275 275 273 272 272 274 277 276 276 277 278 277 279 279 279 279 278 280 278 278 277 278 277 278 281 282 284 285 286 288 289 289 290 291 292 292 293 293 293 292 291 290 290 290 290 290 290 290 291 291 291 291 291 291 292 292 292 293
277 276 276 275 275 275 274 274 275 275 276 276 275 275 275 275 275 276 274 273 273 272 275 276 277 277 278 277 279 278 278 277 277 276 277 277 277 277 277 277 277 281 283 284 286 287 287 287 287 288 288 289 290 290 289 289 288 289 289 289 289 289 290 290 290 290 290 290 290 291 291 291 292 292
277 276 275 274 274 275 274 275 275 276 275 276 275 275 275 275 275 276 276 274 273 273 273 275 275 276 277 277 278 278 278 277 277 276 276 276 277 278 277 277 277 280 283 284 285 285 285 286 286 286 287 287 287 287 288 288 288 288 288 288 288 288 288 288 288 288 288 289 289 290 291 291 292 292
276 275 274 273 274 275 274 275 275 275 275 275 275 275 275 275 275 276 276 276 274 274 273 274 275 276 277 277 278 278 277 276 276 276 276 277 276 276 277 276 276 279 282 283 283 283 284 284 285 285 286 286 286 287 287 287 287 286 286 287 287 287 287 287 287 288 288 289 289 290 290 290 291 292
276 275 274 274 275 275 274 275 275 275 275 275 275 275 275 275 275 276 276 275 275 274 273 274 276 277 277 277 277 277 275 275 276 276 275 276 276 276 276 277 277 279 280 281 281 282 282 283 283 284 285 285 285 285 285 285 285 285 285 285 286 286 286 287 287 287 288 288 289 289 289 289 289 290
275 274 274 274 275 275 274 274 275 275 275 275 275 275 275 275 275 275 275 275 275 275 274 274 274 276 275 275 275 276 276 274 274 274 275 276 276 276 275 275 276 276 276 276 276 278 279 281 282 282 283 284 284 284 284 284 284 284 284 284 285 286 286 286 287 287 288 288 288 288 289 289 289 289
276 275 275 275 275 275 275 275 275 275 275 275 275 275 275 275 275 274 275 275 275 275 274 275 275 275 275 275 273 275 276 275 275 273 273 273 275 275 275 274 275 276 275 277 279 278 279 279 278 280 282 282 282 282 283 283 282 283 284 284 285 285 286 287 287 287 287 288 288 288 288 289 289 289
275 275 274 274 275 276 276 276 276 276 275 276 275 275 275 275 275 274 275 275 275 275 275 274 273 274 274 274 274 274 274 273 274 274 273 272 272 273 274 274 274 274 275 274 274 276 277 276 277 279 279 279 280 281 281 281 281 282 283 284 285 286 287 287 287 287 288 288 288 288 288 288 288 288
276 275 274 274 275 277 278 279 278 278 278 276 274 275 275 275 275 275 275 275 274 274 273 273 274 273 272 272 272 272 272 272 272 274 274 272 273 273 272 273 275 275 274 274 274 273 274 273 273 273 273 274 277 277 279 279 280 282 284 285 285 286 286 287 287 287 287 287 287 288 288 288 288 288
275 275 274 275 278 278 278 278 278 278 278 277 276 275 276 276 276 276 275 274 274 273 273 272 272 271 270 271 271 271 272 274 274 273 272 271 272 272 272 272 274 275 274 272 271 272 273 273 272 273 273 274 275 275 276 276 279 282 284 284 285 285 286 286 287 287 287 287 287 287 288 288 288 288
274 274 274 275 276 276 276 276 277 277 277 277 278 279 279 279 277 275 274 273 274 273 272 272 271 270 270 271 272 272 273 274 273 272 272 271 271 270 269 268 271 275 273 271 270 270 273 273 271 272 273 274 274 275 275 280 282 282 283 284 284 285 285 286 286 286 286 287 287 287 287 287 288 288
274 274 275 275 276 274 274 274 274 275 276 277 278 279 279 279 278 278 275 273 273 272 271 271 271 271 271 271 272 273 273 272 272 272 272 271 271 270 269 269 268 272 274 271 269 269 272 273 272 271 273 274 274 275 278 281 282 283 284 284 284 284 285 285 286 286 286 286 286 286 287 287 287 288
274 275 274 275 275 274 275 274 274 274 274 276 278 279 278 277 277 277 277 277 275 273 272 271 271 272 272 272 272 273 272 273 271 272 271 271 271 270 269 269 270 271 273 271 269 268 271 272 271 271 273 274 274 275 278 280 282 283 283 284 284 284 284 285 285 285 285 286 286 286 287 287 287 288
274 274 274 274 272 272 273 274 274 274 275 276 276 275 274 274 274 275 275 275 276 275 274 273 272 273 273 271 272 273 274 272 271 271 270 271 270 270 269 270 270 271 273 270 269 268 269 271 271 271 273 274 274 274 278 281 282 282 283 283 283 284 284 284 284 285 285 285 285 286 286 286 287 287
274 274 275 273 272 273 273 274 275 275 277 277 275 273 273 273 272 272 272 273 274 275 274 273 272 272 273 273 274 274 274 274 273 272 271 271 271 270 271 270 271 271 272 271 270 265 269 271 271 271 272 273 274 275 277 280 281 282 282 283 283 284 284 284 284 284 284 285 285 285 286 286 286 286
275 275 274 273 273 273 273 274 277 278 278 276 273 272 272 271 271 271 273 276 277 275 274 273 273 273 274 276 275 275 275 274 274 274 273 272 270 269 267 266 268 268 271 271 269 267 268 271 270 270 272 273 273 274 274 278 280 281 282 283 283 283 283 284 284 284 284 284 284 285 285 285 285 285
274 274 274 274 274 273 273 275 278 280 279 275 273 271 270 269 269 270 272 275 276 276 276 276 276 276 277 277 277 278 278 276 275 272 269 268 269 267 265 266 267 267 269 270 270 269 268 270 270 270 272 272 272 273 274 274 279 281 281 282 282 282 283 283 283 283 284 284 284 284 284 284 285 285
274 274 274 274 274 273 273 276 279 280 278 274 273 271 269 268 268 270 272 273 272 273 273 273 274 275 275 276 276 276 277 277 276 270 267 269 269 267 267 265 266 267 268 270 272 269 268 270 271 270 271 272 272 273 274 275 276 278 278 280 281 281 281 282 282 283 283 283 283 283 284 284 285 282
273 273 274 274 274 274 275 278 279 279 277 274 272 270 268 267 268 270 272 270 268 267 267 267 268 269 271 270 270 271 275 276 274 271 270 270 269 267 267 266 266 265 267 270 272 268 268 269 270 270 268 267 271 274 274 274 274 274 274 274 275 278 280 280 281 281 282 282 283 283 283 284 284 281
271 272 272 273 274 276 277 278 279 278 278 275 271 268 267 268 269 273 271 269 267 266 266 266 267 268 268 269 270 270 270 271 271 272 271 270 269 268 267 267 267 265 266 270 273 269 270 270 269 271 269 267 266 270 273 273 273 273 273 273 273 276 277 278 278 279 280 281 282 282 283 283 283 280
270 270 271 272 274 276 277 278 278 278 277 276 271 269 268 271 273 274 268 266 268 265 266 266 267 267 268 268 268 268 269 269 270 270 271 270 269 269 267 267 267 267 268 271 275 271 269 269 268 270 270 270 270 270 271 272 273 273 273 273 272 273 273 274 275 274 277 279 280 281 282 282 283 281
270 270 271 271 273 276 277 278 277 277 276 275 270 270 275 276 275 271 267 265 265 265 265 266 266 267 267 267 267 268 268 269 269 269 269 269 269 269 269 268 267 267 268 271 275 271 269 268 269 269 269 269 269 270 269 270 272 273 273 273 273 273 273 273 273 273 274 274 275 277 279 282 282 282
270 271 271 272 274 277 277 277 277 276 275 272 272 275 275 274 273 269 264 265 265 265 265 266 265 266 266 266 266 267 268 269 269 269 269 269 269 269 270 270 270 269 270 271 271 271 270 269 271 269 269 269 268 269 269 268 270 273 272 273 273 273 273 272 272 273 273 274 275 279 280 280 281 281
271 270 271 273 276 276 275 276 276 275 273 271 274 274 274 272 269 265 264 263 264 265 265 265 265 265 266 266 266 267 268 268 269 269 269 269 269 269 269 270 270 270 270 270 271 271 271 270 270 271 271 269 268 267 267 270 271 271 270 272 272 273 273 273 272 273 274 274 274 274 274 274 275 275
271 273 276 276 275 274 274 275 273 271 270 272 272 272 271 268 263 263 263 263 264 264 264 265 265 265 266 266 267 268 268 269 269 268 268 269 269 269 269 270 270 270 270 271 270 270 270 270 270 271 271 271 270 270 269 269 270 270 271 270 270 272 273 273 272 272 273 274 274 274 273 274 274 274
274 274 274 274 273 272 272 269 267 266 266 270 270 269 267 263 263 262 263 263 264 264 265 265 265 265 266 267 268 268 268 267 266 267 267 267 267 268 268 268 269 269 270 270 270 271 270 270 270 271 271 271 271 270 270 270 270 271 271 270 271 272 273 273 273 273 273 273 273 273 274 274 274 274
271 271 270 269 272 271 272 271 269 268 267 265 264 262 262 263 263 263 262 263 264 265 265 265 265 266 267 268 268 267 267 266 267 267 267 266 266 267 267 267 267 267 269 270 270 270 270 270 271 271 270 270 271 271 271 271 270 270 271 271 271 268 271 272 273 273 273 273 273 273 274 274 274 275
271 269 268 267 265 265 265 265 263 261 260 262 263 261 261 262 263 265 266 267 265 265 266 266 266 266 266 266 266 267 267 266 266 267 266 266 266 266 266 265 265 266 267 268 269 269 271 270 270 271 271 270 269 270 271 271 270 270 270 271 271 271 272 272 272 273 273 273 272 272 273 274 274 274
269 266 263 262 263 262 263 263 263 262 262 261 261 260 261 262 262 262 261 262 263 264 265 265 265 265 266 266 266 266 266 266 266 267 266 266 265 266 266 264 265 265 265 266 267 268 269 269 270 271 271 271 271 271 270 269 270 270 269 270 271 271 272 273 272 272 273 273 272 273 273 274 274 274
266 262 260 261 261 262 262 262 262 262 262 261 261 261 263 262 261 262 263 263 263 265 265 265 266 266 266 266 266 266 266 266 266 267 267 266 266 265 264 264 264 265 265 265 266 267 268 268 269 270 272 272 273 273 271 269 268 270 271 271 271 271 272 273 273 273 273 273 272 271 272 273 274 275
261 260 260 260 260 262 262 262 262 263 262 261 260 260 261 261 262 263 262 263 264 264 265 265 266 266 266 266 266 266 266 265 266 266 266 266 265 265 264 264 264 265 265 265 265 266 267 267 267 268 269 270 270 271 275 273 270 270 271 271 271 271 272 273 273 273 274 273 273 272 272 273 273 274
258 258 258 259 259 261 261 262 263 263 262 261 260 260 260 260 261 262 262 263 264 264 265 265 265 265 266 266 266 266 266 266 265 265 265 265 265 265 265 264 265 265 265 265 265 266 266 266 266 266 265 266 266 265 267 274 274 272 270 270 271 272 272 273 273 274 273 273 274 273 271 271 272 274
258 257 258 258 259 260 260 261 262 262 262 261 260 259 260 260 261 262 263 264 264 265 265 265 265 266 266 266 266 266 266 266 265 265 265 265 265 265 264 265 265 265 265 265 266 266 266 266 266 265 265 264 264 264 266 270 273 275 272 271 271 272 272 273 273 273 273 274 273 273 272 272 272 273
256 257 257 258 258 259 261 261 262 261 261 262 261 260 260 260 261 262 263 264 264 264 265 265 265 266 266 267 266 266 266 266 266 265 265 265 265 265 265 264 265 265 265 266 266 266 266 265 265 265 265 264 263 264 264 268 269 271 275 273 271 272 273 273 272 272 272 274 273 274 274 273 273 273
256 257 257 257 259 260 260 261 261 261 261 261 261 260 260 260 261 262 263 263 264 265 265 265 265 266 266 266 267 266 266 265 265 265 265 265 265 265 265 265 265 266 266 265 266 266 266 265 265 265 265 264 264 265 266 266 267 270 273 276 274 273 273 273 272 272 272 272 273 274 274 275 276 278
257 257 257 259 259 260 260 261 261 261 261 261 261 260 260 261 261 262 263 264 264 265 265 265 266 266 266 266 266 266 266 266 265 266 265 265 265 265 265 265 265 265 265 265 265 265 265 265 266 266 266 267 268 269 270 270 270 272 273 274 277 275 274 273 272 272 271 272 273 272 271 272 271 273
256 256 256 258 259 260 260 260 260 261 261 261 261 261 261 261 261 262 263 264 265 264 264 265 265 266 266 266 266 266 265 266 266 266 266 266 265 265 265 266 265 265 264 264 265 265 265 266 268 270 269 268 269 270 270 268 267 269 270 272 275 277 277 276 274 273 272 273 272 271 270 270 270 271
254 256 257 257 258 259 260 260 260 261 261 261 261 261 261 261 262 264 264 265 264 265 265 265 266 266 266 266 266 266 266 265 266 266 266 265 265 265 265 265 264 265 264 264 264 265 267 268 268 268 267 267 267 266 266 266 267 268 270 271 272 275 276 277 277 277 275 273 272 270 270 270 271 270
255 255 256 257 259 259 260 260 260 261 261 261 261 261 261 261 262 262 263 264 264 265 265 265 266 266 266 266 267 267 266 266 266 266 266 265 265 264 264 264 264 265 265 265 266 267 267 267 267 266 266 266 266 267 265 267 268 269 269 270 271 272 273 276 276 276 276 276 276 274 272 271 269 267
254 254 255 256 258 259 259 260 260 261 261 261 261 261 261 261 261 262 263 264 264 264 265 265 266 266 266 266 267 267 266 266 266 266 265 265 265 265 264 264 265 265 265 265 266 266 266 266 266 266 264 264 265 265 266 267 267 269 269 270 270 270 271 272 273 274 274 275 275 275 276 276 276 275
254 254 255 256 258 258 259 260 260 260 260 260 260 260 261 262 262 263 263 264 264 265 265 266 266 266 266 267 266 266 266 267 267 266 266 265 265 265 265 265 265 265 265 265 265 265 265 265 265 265 264 265 265 266 267 268 268 268 269 269 268 270 271 271 270 269 269 269 273 275 275 276 276 276
Wind_Speed
5 6 7 7 6 5 5 5 5 6 6 5 5 5 7 8 10 12 14 12 10 6 5 8 3 7 9 9 9 9 8 11 15 10 10 9 8 17 25 25 24 24 25 25 25 26 27 30 30 29 27 25 25 26 25 25 26 25 24 23 22 23 23 22 21 21 21 21 21 21 21 21 21 21
7 7 8 8 7 6 6 6 6 5 6 6 5 6 6 6 8 9 11 15 6 12 5 3 10 11 10 10 9 8 9 15 16 10 9 8 9 22 24 24 23 24 25 25 25 27 27 28 30 30 29 28 27 26 26 26 26 25 25 25 25 24 23 22 22 21 20 20 20 21 20 20 20 21
7 9 9 8 7 7 6 6 5 5 6 6 5 6 6 6 7 8 9 13 8 2 14 10 6 10 12 10 11 9 8 11 16 11 8 8 17 23 17 22 22 23 25 26 26 27 27 27 28 29 29 28 28 27 28 27 26 26 26 26 25 24 23 22 22 21 20 20 20 20 20 20 20 20
8 8 8 8 7 7 6 5 6 6 6 5 5 5 5 6 7 7 9 11 17 9 10 12 11 9 12 11 11 12 9 10 17 8 9 11 17 11 9 15 21 23 25 26 27 27 27 27 26 26 27 28 28 28 29 29 28 27 26 24 23 23 22 22 22 21 20 20 20 20 19 19 19 19
8 8 9 9 8 6 6 6 6 6 6 5 5 6 7 7 7 8 9 12 16 12 6 10 10 10 11 12 9 12 11 11 10 10 9 9 9 9 8 8 15 22 24 26 26 26 27 27 26 25 25 25 25 25 26 26 25 25 24 23 23 23 23 22 22 22 21 21 20 19 19 20 20 20
7 8 9 8 6 6 6 6 6 6 6 7 8 8 8 8 8 7 9 11 13 18 13 11 8 9 9 12 10 10 12 12 12 13 11 8 8 8 8 8 9 21 24 25 26 27 27 26 25 25 25 25 25 25 25 24 24 24 24 24 23 23 23 23 22 22 22 21 21 20 21 23 22 21
9 8 6 5 5 5 7 7 7 6 8 8 8 9 8 9 9 9 9 10 13 16 15 11 13 12 11 9 10 11 10 11 10 12 11 10 9 7 8 9 8 19 24 26 26 27 27 26 25 25 25 25 26 25 25 24 24 24 23 23 23 23 23 23 22 22 21 21 21 21 22 23 22 23
8 7 6 4 5 7 8 8 8 7 8 8 9 9 9 9 10 9 9 9 11 13 16 15 14 14 13 10 9 9 10 11 11 9 10 9 9 8 7 8 9 14 26 26 26 26 26 25 25 25 26 26 26 26 25 25 24 23 23 22 22 22 22 21 21 21 21 21 22 23 24 24 23 22
7 7 6 5 6 8 9 8 8 8 10 9 9 9 10 9 9 9 9 10 10 12 14 17 13 10 10 8 9 9 12 14 12 10 9 9 10 10 8 7 9 18 23 23 23 24 24 25 25 25 26 26 26 25 25 25 24 23 23 22 22 21 21 21 20 20 21 22 23 23 24 24 23 23
6 6 5 5 5 8 8 9 9 9 11 10 10 11 10 10 10 10 10 10 11 11 13 13 16 13 12 14 10 9 10 13 14 14 12 9 8 9 10 10 10 10 9 9 12 15 18 21 25 26 25 26 25 25 25 24 24 24 23 23 22 21 20 20 22 23 23 24 24 23 23 24 24 24
6 6 5 4 5 6 7 9 10 11 11 9 11 10 11 10 11 11 11 11 12 13 12 12 12 14 12 9 13 12 10 11 11 14 15 15 11 10 13 17 13 9 11 13 18 18 19 23 19 23 25 25 25 24 24 24 24 23 24 24 22 22 22 23 23 24 25 24 24 25 25 24 24 24
5 5 5 5 5 6 6 8 10 10 10 9 10 9 10 11 12 12 11 11 10 10 11 11 13 12 12 13 10 9 10 13 11 8 11 16 18 19 15 10 12 12 10 11 10 11 14 15 19 22 21 22 23 24 22 23 23 24 24 24 24 24 24 24 24 24 24 25 24 24 24 25 24 25
6 4 4 4 5 8 12 14 12 11 12 9 10 10 10 12 12 11 9 10 12 12 12 13 12 12 12 11 11 13 12 13 14 13 12 14 14 14 15 11 9 10 14 11 10 12 11 12 12 12 12 12 18 17 21 18 22 24 25 26 26 25 25 25 25 25 24 24 24 24 24 24 25 25
7 6 5 6 13 14 14 13 14 14 14 13 11 11 12 11 11 11 12 11 10 11 11 10 12 14 13 11 11 13 14 12 12 13 14 14 12 13 14 14 6 9 9 12 13 11 10 12 12 11 11 11 12 11 10 10 17 23 27 26 25 25 25 25 24 24 24 24 24 24 24 25 25 25
7 6 6 5 8 9 8 8 14 14 12 14 16 19 18 15 11 11 12 11 10 11 10 11 11 12 14 13 12 14 12 11 13 13 12 11 13 12 13 16 15 4 10 12 14 16 11 10 12 11 11 11 10 10 11 23 26 27 27 26 25 25 25 25 24 24 24 24 24 24 24 24 25 25
6 7 8 8 6 5 7 9 8 10 13 17 19 19 17 17 16 14 11 12 11 10 11 11 10 11 12 15 13 10 10 13 13 12 11 13 14 14 13 11 12 13 12 14 16 15 9 9 10 11 10 11 10 12 20 27 27 27 26 26 26 25 24 24 24 25 25 25 24 24 24 24 24 25
8 9 9 8 6 4 10 10 9 10 12 16 17 17 18 15 14 14 15 14 11 10 9 11 13 10 12 13 11 11 15 15 13 11 12 11 12 13 12 12 15 16 13 13 12 14 11 9 10 11 11 10 9 12 18 26 27 27 26 25 24 24 24 25 25 24 24 24 24 23 24 24 24 25
8 8 9 7 5 5 6 8 10 11 12 11 10 12 11 10 11 13 14 14 14 12 9 10 11 12 11 12 13 14 14 12 11 12 11 13 13 13 15 16 15 14 10 10 12 14 10 9 11 11 10 9 11 11 19 27 27 26 26 24 24 25 25 25 25 24 24 24 24 24 24 24 25 25
8 8 7 5 5 6 8 8 12 13 11 9 8 12 11 10 9 9 9 9 8 8 9 10 11 12 11 10 11 10 9 10 10 9 12 13 13 14 15 13 10 11 8 9 9 12 13 9 11 11 11 12 12 11 17 24 25 25 24 25 27 27 26 25 25 25 24 24 24 25 24 25 25 25
8 7 6 6 7 7 9 12 18 18 14 9 9 12 11 10 9 8 8 12 12 11 10 9 10 10 12 16 14 14 12 9 8 9 8 8 8 9 11 13 12 11 9 7 8 10 11 8 11 14 12 11 12 12 12 18 23 23 25 27 27 28 27 26 25 25 25 25 25 25 25 24 25 24
9 8 8 8 8 8 8 13 19 21 21 7 8 10 10 9 9 9 8 10 14 15 16 17 18 18 19 19 19 19 20 14 10 7 8 8 8 9 10 12 12 13 12 9 5 8 12 11 11 14 10 10 12 10 11 11 16 24 27 27 27 27 27 27 26 26 26 26 25 25 25 25 24 26
8 8 13 11 8 9 9 15 20 22 18 8 6 6 10 11 10 9 9 8 8 12 14 16 17 18 19 20 19 19 18 17 13 5 8 9 8 9 9 9 11 13 13 8 4 8 11 12 10 12 12 10 7 8 8 11 15 21 20 25 27 26 25 26 27 26 26 26 26 25 25 24 23 15
8 8 8 12 11 10 12 19 20 23 17 9 4 6 8 9 9 9 10 9 11 11 10 9 9 9 11 10 9 10 17 17 12 6 6 7 8 9 10 10 11 11 11 9 7 10 12 12 10 10 14 13 6 4 7 11 12 11 10 12 14 20 24 26 26 26 26 26 26 25 25 24 21 11
8 8 7 9 12 15 17 19 21 20 19 11 5 4 5 8 8 8 7 8 9 10 9 10 9 9 8 6 7 6 7 7 5 7 6 7 7 8 9 10 9 9 10 10 10 10 11 9 12 9 7 10 14 12 10 11 10 10 9 10 10 15 19 20 19 23 24 24 25 25 24 24 22 12
10 9 8 7 12 17 19 21 21 19 17 13 5 4 6 7 12 13 7 8 10 8 9 9 9 9 8 7 6 6 6 6 6 7 7 7 6 7 9 9 9 9 14 13 16 10 11 12 13 11 8 7 10 14 12 12 13 10 10 9 11 11 10 11 10 12 15 20 21 23 23 23 24 18
9 9 9 9 14 20 21 22 20 18 16 14 5 7 14 17 16 10 6 7 7 7 8 8 8 9 10 10 10 11 9 8 9 8 8 8 7 6 7 8 10 9 14 16 21 12 11 12 11 12 11 10 11 11 15 14 13 12 11 10 9 10 9 11 11 11 10 10 10 10 17 26 24 23
8 8 9 10 17 22 23 20 19 17 17 11 8 16 16 15 16 11 6 7 6 7 7 8 8 8 9 10 11 10 11 12 12 10 10 9 9 8 8 8 9 11 13 14 13 12 10 11 11 11 13 13 12 13 12 13 15 14 14 12 12 11 9 7 10 11 11 10 10 18 21 20 21 22
8 9 8 11 22 22 21 19 18 17 15 10 15 15 15 15 12 7 7 5 6 7 8 8 8 9 8 8 9 10 11 11 12 12 10 9 10 10 10 10 11 10 12 11 11 10 10 10 12 11 11 12 12 10 12 12 13 14 14 13 13 11 8 8 10 11 10 10 11 10 10 11 9 9
8 13 20 21 21 20 19 19 16 12 12 16 15 15 16 11 5 7 6 7 7 8 8 8 8 8 8 7 8 9 9 10 10 11 11 10 9 9 10 10 9 9 8 8 8 9 9 9 11 11 11 10 11 13 12 14 14 15 13 14 14 14 12 10 6 9 11 11 11 11 11 11 13 10
19 18 19 21 20 16 13 10 7 7 7 14 15 14 11 6 6 6 7 6 7 7 7 7 8 9 10 10 10 10 8 7 8 8 10 11 12 12 13 15 15 10 7 6 7 8 8 8 9 11 12 12 11 12 13 13 15 15 15 12 13 15 11 8 12 11 10 12 12 13 12 11 11 10
9 11 11 12 16 13 16 14 12 10 9 8 6 6 6 6 6 6 5 6 7 7 7 8 8 8 9 9 9 8 8 9 8 7 8 10 10 10 10 10 12 14 14 10 7 7 7 8 9 10 12 14 13 12 12 12 14 14 15 13 11 12 15 14 12 11 11 12 12 13 13 13 12 9
7 8 10 11 6 6 6 6 4 4 4 6 7 6 6 6 7 7 8 7 5 5 6 8 8 8 8 8 9 9 9 8 8 8 8 8 11 10 10 9 11 11 14 14 11 8 7 7 9 9 11 13 15 15 11 10 13 13 14 13 11 12 11 12 13 13 12 12 13 12 12 13 14 12
7 6 7 7 7 6 7 8 7 7 7 6 5 5 6 6 6 6 6 6 6 6 7 8 8 9 9 9 8 9 10 11 10 8 10 9 9 10 8 10 11 11 13 15 14 13 10 9 8 10 11 12 13 14 13 14 12 10 10 12 10 12 12 11 12 14 14 13 13 13 15 13 12 11
7 7 6 6 7 7 8 8 9 9 9 9 9 7 7 7 7 6 6 6 7 8 8 8 8 9 9 9 9 9 10 11 11 11 10 11 9 9 10 11 12 11 11 13 13 13 13 12 11 10 10 10 10 11 11 9 13 13 12 12 11 13 13 13 13 14 13 13 15 16 14 14 12 10
5 7 7 7 6 6 6 7 8 8 9 9 9 9 8 6 7 8 7 7 8 8 8 8 7 8 8 9 9 9 10 10 11 10 10 9 10 10 11 11 12 12 12 13 13 12 12 13 13 14 13 11 11 7 9 11 9 10 12 13 11 12 14 13 14 14 14 13 12 14 16 14 14 10
6 6 6 7 6 7 7 7 8 8 8 8 8 9 10 9 7 8 8 8 8 8 8 8 9 8 9 9 9 9 9 10 10 10 10 10 11 11 11 11 12 12 12 12 12 12 11 12 11 13 15 16 15 19 15 4 6 9 11 13 12 11 13 14 15 13 13 13 12 13 15 16 15 13
6 5 5 6 6 6 7 7 8 8 8 8 8 7 8 9 9 8 8 9 8 8 8 9 8 9 9 9 10 10 9 9 10 11 11 10 10 10 11 13 13 13 13 14 12 11 10 11 10 10 12 14 14 13 18 15 13 10 9 10 13 13 14 14 15 14 13 13 14 12 14 15 16 13
5 5 5 5 5 6 6 7 7 8 8 8 8 8 7 7 8 9 8 8 8 7 8 8 8 8 8 8 9 10 10 10 9 10 11 11 11 12 12 12 13 13 13 14 12 11 9 9 10 10 10 13 14 14 16 19 17 10 2 8 13 14 13 13 14 15 15 12 13 13 12 14 15 14
4 5 5 6 6 6 7 7 7 8 8 8 8 8 9 8 8 9 8 8 8 8 8 8 8 8 9 9 9 9 9 10 10 10 11 11 11 12 13 12 13 13 13 15 14 12 10 10 10 10 11 12 13 16 15 16 17 19 16 14 11 12 12 12 14 14 14 14 13 13 13 12 16 21
4 3 4 5 6 6 6 6 7 7 8 8 7 7 8 9 9 9 9 9 9 9 8 8 9 9 8 8 9 9 10 10 10 10 10 11 12 12 12 12 13 13 13 14 15 14 12 11 11 12 13 12 14 15 15 15 16 15 15 13 12 12 12 12 14 15 16 13 13 14 16 14 15 12
4 6 5 5 5 6 6 6 7 7 7 8 7 7 8 8 9 8 8 10 10 10 9 9 9 9 9 9 9 9 10 11 10 10 10 11 12 13 14 13 13 12 13 14 14 14 14 13 15 21 18 13 13 14 12 12 14 16 16 16 9 13 16 14 12 13 14 16 14 14 15 15 14 14
4 5 5 5 5 6 6 7 7 7 7 7 7 7 8 8 7 12 11 11 9 9 8 9 9 9 9 8 9 9 9 10 10 11 11 11 11 12 14 12 12 13 13 14 14 14 14 14 15 13 12 11 11 11 13 13 15 16 16 16 16 12 13 16 18 16 14 12 13 14 14 15 12 14
4 5 5 6 5 6 6 7 7 7 7 7 7 7 8 8 8 8 8 9 9 8 8 9 8 8 9 9 9 9 9 10 10 11 12 11 11 12 13 12 12 13 13 14 13 13 14 14 12 12 12 10 9 9 13 15 15 16 16 16 17 16 14 11 13 16 18 19 17 15 12 12 11 12
5 4 5 5 5 6 6 7 7 7 7 7 7 7 7 7 8 8 8 8 9 9 9 9 9 9 9 9 9 9 8 8 9 11 11 11 11 11 12 13 13 13 13 13 14 14 13 13 12 11 12 12 11 11 13 14 15 15 15 15 16 16 17 15 11 7 9 12 16 19 21 22 20 23
4 5 5 5 6 6 6 6 7 7 7 7 7 7 7 7 8 8 8 8 8 9 9 9 9 9 9 9 9 10 10 11 10 10 10 10 11 11 11 12 12 14 13 13 14 15 14 14 13 11 10 12 11 11 14 14 15 16 16 17 18 16 14 14 16 19 16 10 6 14 22 24 25 25
Wind_Direction
345 334 337 334 330 325 330 327 322 312 306 304 312 324 326 322 312 317 316 310 322 323 350 325 332 352 333 327 323 319 317 319 326 323 326 327 328 326 324 324 323 323 324 323 321 320 319 317 317 319 321 318 316 317 318 318 320 323 324 327 331 334 337 331 324 319 316 313 310 306 304 301 297 292
340 335 337 338 333 330 322 326 323 325 330 327 326 324 316 315 309 310 307 300 316 301 311 326 316 327 327 322 317 319 315 322 327 326 328 331 327 325 324 322 321 322 321 320 320 322 320 319 319 320 321 322 322 319 317 318 320 322 325 329 332 333 327 322 320 316 312 312 307 305 302 299 295 294
339 341 339 338 326 323 324 325 330 334 326 315 334 336 339 331 322 307 300 297 292 355 311 314 311 313 317 319 315 315 314 320 327 329 329 329 324 322 316 316 319 320 320 320 321 322 321 321 321 320 322 323 324 324 323 325 325 324 326 329 325 321 319 316 313 309 307 307 307 305 302 300 298 297
342 337 335 332 324 324 332 341 340 328 314 327 338 337 320 313 311 306 298 289 290 309 299 303 311 312 311 316 315 316 314 321 328 328 327 319 318 310 304 308 315 319 319 320 321 321 321 322 323 322 322 324 326 325 326 326 326 327 326 319 313 311 309 309 307 306 306 306 308 308 304 302 299 295
340 339 334 330 329 347 353 343 329 320 321 320 328 324 320 316 314 309 306 298 297 297 292 299 306 315 316 314 320 312 319 325 327 327 318 312 307 307 303 306 313 318 319 320 320 321 322 324 324 323 322 322 321 321 320 319 317 314 311 309 308 307 307 307 306 305 305 306 306 304 302 299 296 294
342 336 331 330 348 353 343 329 325 323 320 335 327 324 322 315 312 312 304 298 300 302 312 307 304 305 316 309 316 319 325 326 326 321 317 309 307 307 308 312 313 317 319 320 322 324 324 323 322 322 322 322 321 319 318 316 314 313 311 309 308 306 305 304 304 304 304 303 302 302 301 298 298 294
337 332 327 330 346 340 329 328 325 322 332 329 327 325 319 314 313 309 303 303 303 306 306 311 312 317 315 311 319 327 324 318 316 310 313 314 313 312 314 314 312 317 321 323 324 323 323 322 321 321 322 321 320 319 317 316 316 315 313 310 307 305 304 303 301 301 300 299 297 296 297 299 299 298
335 329 327 329 343 337 328 328 327 332 331 328 327 321 318 315 314 311 309 303 303 306 307 310 313 312 315 319 327 323 316 314 313 309 305 306 308 311 314 313 311 319 323 322 321 320 321 321 321 321 320 320 320 318 317 318 317 315 313 311 309 307 305 302 299 298 298 297 298 298 298 299 299 296
337 332 328 331 340 331 325 326 326 328 328 326 321 318 318 316 316 314 312 309 304 305 304 305 306 307 307 313 318 323 321 320 315 310 309 315 313 314 316 314 318 319 318 317 318 319 319 321 320 320 320 319 318 318 318 317 317 316 315 313 310 306 303 301 300 298 296 295 296 296 297 298 295 295
337 317 316 323 320 324 326 324 322 322 321 319 317 318 319 319 315 312 308 306 299 291 296 298 306 313 317 317 318 326 321 320 319 319 315 309 312 319 321 324 322 318 315 316 318 318 317 318 320 318 317 316 317 316 316 316 317 317 314 312 310 308 305 303 300 298 297 297 295 294 293 293 294 294
314 304 304 313 317 315 321 322 320 319 317 317 317 320 321 318 315 311 307 300 299 294 292 304 305 308 312 315 316 324 320 312 316 319 322 321 323 325 329 325 323 318 312 310 312 312 315 317 317 314 315 315 314 313 314 316 315 313 313 312 311 307 305 303 301 299 299 297 296 297 295 293 292 291
318 322 327 317 311 306 303 314 317 318 318 319 318 320 317 315 308 303 301 295 294 301 311 311 313 314 316 319 314 313 320 321 319 328 326 320 325 325 323 316 314 313 311 313 313 313 317 314 313 314 312 310 311 314 315 313 314 313 313 312 310 308 306 304 302 300 300 300 299 299 298 295 293 290
320 313 308 302 298 315 322 321 321 321 323 323 319 317 316 311 307 300 300 314 317 315 313 314 317 316 316 317 319 323 327 328 322 324 329 317 315 313 307 311 313 315 318 314 315 318 320 315 313 312 308 308 312 310 311 311 310 311 312 314 313 311 308 305 303 302 301 301 300 298 296 295 294 292
330 329 324 323 328 326 324 327 329 329 328 322 314 311 311 311 307 311 320 316 313 313 314 316 319 316 313 316 319 318 317 315 317 322 326 317 313 311 308 303 316 324 318 318 313 311 316 311 304 303 302 305 308 306 309 305 310 313 315 314 313 311 310 308 307 305 303 301 300 298 296 295 294 295
332 327 324 318 319 319 326 350 341 329 326 317 314 312 311 313 319 322 316 311 314 316 313 313 311 308 306 309 315 314 312 318 324 323 317 310 314 319 325 321 320 12 344 323 315 312 315 309 304 304 303 306 306 307 304 312 315 314 313 313 313 313 312 310 308 306 304 302 301 300 297 296 295 295
322 324 324 325 322 320 347 342 329 321 309 299 301 306 321 326 323 316 311 313 317 318 313 308 306 306 303 307 312 317 325 324 319 315 314 316 317 318 315 309 305 318 336 320 312 304 312 306 297 302 306 305 303 305 312 313 312 311 312 313 313 313 311 310 310 309 307 304 302 299 298 296 296 296
325 327 325 321 320 341 345 332 322 315 304 300 304 327 330 324 322 317 314 311 304 305 300 303 305 306 312 312 317 326 319 315 308 316 318 320 317 314 305 306 311 314 326 312 304 304 315 312 308 304 304 302 306 308 309 309 311 311 313 313 313 313 314 314 313 311 308 306 304 302 300 299 297 297
327 323 320 317 323 341 334 320 320 312 305 311 332 336 328 322 323 321 315 309 304 301 304 309 308 313 317 309 309 311 315 317 316 319 317 320 317 314 308 309 307 305 317 306 309 302 311 315 306 301 305 314 309 304 306 310 311 312 313 314 315 317 317 316 314 313 311 309 307 305 304 302 301 300
321 316 314 319 330 331 321 317 322 318 319 332 340 332 324 323 324 316 306 302 309 319 320 313 309 308 309 301 303 310 312 310 312 312 309 315 310 303 301 298 297 299 303 306 313 299 307 313 305 305 314 313 307 305 306 306 308 312 315 316 318 318 318 317 316 315 314 313 311 308 306 305 303 300
319 317 320 326 324 317 316 313 318 323 331 333 334 328 324 323 320 305 304 311 319 320 317 312 308 305 305 310 311 315 319 316 307 305 308 299 298 305 309 311 319 310 311 313 305 296 296 312 309 310 308 305 306 308 300 300 307 314 316 317 318 318 318 317 317 317 316 316 314 311 309 306 304 301
322 325 325 320 316 315 310 312 318 327 335 324 324 327 326 323 317 311 307 318 320 319 318 318 314 310 311 313 313 317 322 321 325 323 311 312 315 314 310 309 319 316 317 315 297 296 302 315 314 305 307 309 305 302 299 299 306 317 318 317 316 316 315 316 316 318 317 316 316 313 311 308 305 303
319 318 319 318 313 313 310 314 323 330 335 323 318 335 331 324 319 315 322 320 318 314 314 312 310 309 309 314 314 314 318 325 334 329 311 310 315 308 307 306 313 311 309 305 322 315 302 309 312 307 302 297 286 290 285 305 311 316 315 313 313 312 312 313 314 315 315 315 315 314 312 310 308 305
320 318 318 319 317 313 313 319 326 332 336 327 336 348 327 314 303 316 331 336 330 329 326 318 316 308 304 298 296 298 311 321 323 310 299 313 314 307 306 305 309 310 305 305 350 319 311 316 316 328 320 315 288 240 304 306 305 308 308 305 306 305 311 312 311 311 311 312 312 312 312 311 312 306
322 320 317 319 318 316 317 322 329 333 335 331 354 350 310 296 303 326 338 338 321 314 308 305 307 299 294 294 295 298 302 307 304 313 311 307 307 302 298 300 301 290 291 298 328 313 302 303 306 321 306 309 318 322 316 303 302 302 303 303 301 306 309 308 306 305 304 305 308 310 311 312 313 308
320 320 319 317 316 317 319 324 329 332 333 336 356 318 272 290 315 329 337 321 314 306 306 306 309 311 315 315 312 314 317 314 313 310 308 301 294 293 294 294 292 277 289 291 313 317 309 310 305 308 297 284 283 303 309 307 305 306 305 303 302 303 306 302 298 298 297 298 299 302 306 309 308 306
319 318 316 313 314 317 321 326 329 332 335 338 331 295 315 324 329 333 329 308 309 308 312 315 318 327 333 336 336 333 329 324 320 317 311 305 294 278 266 276 288 289 292 300 310 307 303 301 303 307 303 302 292 297 306 309 304 308 307 303 298 296 300 299 299 297 296 295 294 290 304 309 307 303
317 310 308 305 311 320 325 326 328 334 337 335 317 325 330 336 338 336 307 310 314 316 318 323 326 329 332 333 332 328 327 325 324 322 317 312 307 298 287 275 264 269 280 291 295 293 289 288 294 298 301 304 299 301 300 307 310 313 312 311 308 302 296 287 292 298 298 296 293 298 302 298 299 300
308 304 295 305 319 324 324 326 330 336 336 328 330 336 337 343 338 319 316 316 320 321 323 328 328 328 327 325 322 323 321 317 315 313 311 310 309 306 303 294 284 276 278 281 286 285 285 283 290 291 288 299 302 302 302 296 293 302 305 307 304 300 297 298 297 293 294 297 297 299 302 303 296 297
303 309 315 319 321 322 323 328 334 333 330 334 340 342 343 341 321 322 319 324 328 331 330 325 319 315 314 305 294 296 302 306 309 315 320 320 316 309 301 292 282 280 279 283 282 285 284 285 288 294 295 292 293 293 295 297 303 301 305 312 311 310 311 304 278 291 300 301 299 301 300 303 303 304
313 313 317 321 320 319 324 330 334 326 330 338 339 339 337 327 325 322 325 324 335 326 321 322 320 314 311 311 310 304 300 305 312 319 319 323 327 332 331 329 325 319 304 295 297 294 290 290 291 296 295 292 287 288 292 300 300 300 303 302 299 302 297 310 311 309 306 305 306 303 299 296 293 300
304 314 322 317 318 321 326 327 325 325 332 329 323 329 331 327 325 323 318 326 325 322 319 318 311 306 303 300 306 317 320 318 317 319 315 315 316 322 322 319 312 319 320 321 312 302 300 300 299 301 301 298 292 283 286 287 287 291 294 297 306 299 302 309 304 303 305 301 302 300 298 300 298 292
317 325 319 317 310 316 320 318 305 309 316 320 323 326 328 326 323 320 323 325 309 299 308 300 299 299 308 314 316 317 320 317 315 321 321 318 315 320 321 320 319 318 316 320 321 317 309 302 304 301 294 295 295 294 287 279 278 282 285 290 293 288 291 299 304 304 302 302 300 297 298 301 301 303
326 323 320 321 330 339 335 332 330 331 332 330 330 328 330 330 327 324 331 333 326 320 317 314 313 313 318 318 318 320 321 324 325 325 322 320 319 316 320 316 314 320 320 317 320 321 321 313 298 295 291 286 283 287 301 306 293 286 282 288 297 297 300 301 302 303 308 305 297 299 301 296 291 292
323 324 322 328 329 332 336 332 334 335 336 333 335 339 335 333 328 330 331 324 321 321 317 311 313 317 320 319 323 323 322 318 322 324 328 319 320 320 323 320 316 314 313 312 315 318 321 319 316 306 291 278 271 280 284 276 287 297 298 300 303 302 301 303 302 301 303 302 304 304 300 298 294 291
343 323 331 326 330 326 324 323 328 328 329 331 329 330 332 329 328 328 328 322 321 319 313 313 311 312 313 312 315 318 318 316 315 319 321 321 323 323 322 319 317 318 318 315 315 319 321 322 326 323 320 321 315 278 238 254 275 286 297 295 296 296 298 302 302 303 302 300 298 295 299 297 298 301
329 328 324 326 326 327 325 324 322 323 323 324 326 325 328 331 333 330 325 322 320 315 315 318 319 318 316 312 314 315 315 317 315 318 321 325 324 321 321 317 316 315 315 312 312 316 320 320 329 329 330 330 331 326 332 184 260 291 298 295 297 296 298 300 300 300 302 302 300 300 299 300 298 304
319 324 328 321 319 323 319 319 320 319 322 320 321 322 321 322 324 319 311 312 312 314 316 318 315 315 313 314 315 316 317 320 318 320 320 321 320 320 321 321 321 319 317 313 313 312 319 320 323 327 327 325 323 315 305 316 308 287 256 285 297 302 303 304 304 305 305 304 301 298 294 295 294 297
312 317 324 319 315 313 314 315 316 316 317 320 317 318 314 310 310 311 312 316 316 315 315 315 311 310 309 312 314 316 319 319 317 318 320 322 326 326 324 320 319 319 316 310 313 315 318 315 320 325 330 322 316 312 312 316 318 314 235 288 294 297 300 303 306 307 307 304 298 298 295 292 293 297
313 324 324 319 317 319 318 317 316 315 316 316 320 319 318 316 316 318 320 318 317 317 318 315 313 312 315 316 315 314 315 317 320 319 319 321 323 322 321 321 318 318 318 316 317 318 322 321 323 326 326 320 312 306 305 303 302 302 303 290 278 290 300 304 303 303 305 307 304 301 291 281 275 282
316 321 313 312 309 311 307 313 313 312 311 311 313 313 315 318 319 318 316 319 321 322 317 313 313 316 315 316 315 315 313 314 315 316 318 318 319 319 319 319 316 316 317 314 317 317 321 319 323 324 317 305 295 292 289 284 279 285 292 302 292 292 299 309 307 309 308 307 309 309 308 312 310 311
320 320 305 302 300 308 309 309 308 307 307 307 308 311 312 309 311 311 314 321 321 318 319 316 315 315 316 316 317 317 314 314 315 316 317 318 317 318 317 318 317 320 318 313 314 315 316 316 309 305 302 296 293 289 289 297 305 308 312 310 305 293 290 289 291 300 305 310 311 308 307 310 310 309
312 309 306 306 306 306 306 306 306 305 305 307 309 311 311 311 303 312 315 313 312 312 311 315 317 317 316 317 315 316 312 311 312 314 316 317 317 317 319 322 318 319 318 314 313 308 305 307 308 311 308 307 308 316 309 306 306 308 308 307 309 303 295 291 290 296 303 306 311 310 310 310 313 307
305 301 302 303 302 302 302 301 302 303 304 308 309 311 309 308 307 311 313 314 315 314 315 315 316 316 315 315 314 311 309 308 311 311 313 315 317 318 318 317 315 312 310 306 304 305 308 311 314 316 315 313 311 312 303 304 304 303 306 310 312 314 309 293 286 292 304 304 300 293 291 295 305 298
289 294 292 295 298 297 298 298 299 300 302 306 306 307 305 306 309 309 309 311 313 314 315 314 315 317 316 314 313 310 307 307 309 311 311 313 313 313 312 312 312 311 312 311 313 313 314 315 316 319 318 318 317 312 306 307 304 304 304 303 307 312 312 317 311 277 269 283 293 296 296 296 290 288
288 285 288 289 290 291 292 296 298 302 303 302 304 303 303 302 302 305 305 306 307 309 311 313 314 313 311 312 314 313 314 312 311 308 308 309 312 312 311 311 312 314 315 317 317 315 319 318 316 319 312 312 314 307 304 303 303 307 307 309 310 309 313 323 326 325 323 318 282 299 309 308 307 305